Wind_Speed
13 12 12 12 12 12 12 12 11 11 10 10 10 9 8 8 7 7 6 4 2 1 1 2 4 5 7 9 10 11 12 14 16 18 18 19 20 20 21 22 23 24 25
14 14 13 13 13 13 13 12 12 11 11 10 9 9 8 7 6 6 6 4 3 2 1 1 2 4 6 7 9 10 12 13 15 17 19 19 20 21 21 22 22 23 24
15 15 15 15 14 14 14 13 13 12 11 11 10 9 8 7 6 5 5 4 3 2 1 2 2 4 5 6 7 9 10 11 13 15 17 18 19 20 21 22 23 23 24
17 17 17 16 16 16 15 15 14 13 12 12 11 10 8 8 7 6 5 4 3 3 2 2 3 4 5 6 7 8 9 10 12 14 16 17 18 20 21 21 22 23 23
19 19 19 18 18 18 17 17 16 15 14 13 12 11 10 9 8 7 6 5 4 4 4 4 4 4 5 6 7 9 10 10 12 13 14 15 17 18 20 21 22 22 23
21 21 21 20 20 20 20 19 18 17 16 15 14 13 12 11 10 8 7 7 6 6 6 6 5 5 6 7 8 9 9 10 11 13 14 14 15 17 19 20 21 22 23
23 23 23 22 22 22 22 21 21 20 19 17 16 15 14 13 12 10 9 8 8 7 7 7 7 7 7 8 8 9 9 10 11 12 13 14 15 16 17 19 20 21 22
25 25 25 24 24 24 24 24 23 23 22 21 19 18 17 16 15 14 12 11 10 9 9 9 8 8 8 8 9 9 10 10 11 12 13 13 14 15 16 17 18 20 21
28 27 27 27 26 26 26 26 26 25 25 24 22 21 20 19 18 17 15 14 13 12 11 11 10 10 10 10 10 10 10 11 11 12 13 13 14 14 16 17 18 19 20
31 31 30 30 29 29 29 29 29 28 27 27 25 24 23 22 21 20 18 17 16 15 14 13 12 12 12 12 11 11 12 12 12 13 14 14 15 15 16 17 18 19 20
34 34 34 33 33 32 32 32 31 31 30 29 29 28 26 25 25 23 22 20 19 18 17 16 15 14 14 14 14 13 13 14 14 14 15 15 16 16 16 17 18 19 20
37 37 37 36 36 36 35 35 34 34 33 32 32 31 30 29 28 27 26 24 23 21 20 19 18 17 17 16 16 16 15 15 15 16 16 17 17 17 17 18 19 19 20
41 40 40 40 40 39 39 38 38 37 36 35 35 34 34 33 32 31 30 28 27 26 24 23 22 21 20 19 19 18 18 17 17 17 17 18 18 18 19 19 20 20 21
46 45 44 44 44 43 43 43 42 41 40 39 38 37 37 37 35 34 33 32 31 29 28 26 25 24 23 22 21 21 20 20 19 19 19 19 19 20 20 21 22 22 23
49 49 49 48 47 47 47 46 46 45 44 43 42 41 41 40 39 38 37 36 34 33 32 30 28 27 26 25 24 23 23 22 22 21 21 21 22 22 22 23 24 25 26
53 52 52 51 51 50 50 50 50 49 48 47 46 45 44 43 42 42 41 39 38 37 35 33 31 30 29 28 27 26 25 25 25 24 24 24 24 24 25 25 26 27 27
56 55 54 54 54 53 53 53 52 52 52 51 50 48 47 46 46 45 44 43 42 40 38 36 35 33 32 31 30 29 28 28 27 27 27 26 27 27 27 28 28 29 29
58 58 57 56 56 56 56 56 55 55 55 54 53 52 50 49 48 48 47 46 44 42 40 39 37 36 35 34 33 32 31 30 30 29 29 29 29 29 29 30 30 30 31
59 58 57 57 57 57 57 57 57 57 57 57 56 55 54 52 51 51 50 48 46 44 42 41 40 39 37 36 35 34 33 32 31 31 31 30 30 30 31 31 31 31 32
58 56 55 55 55 56 56 56 57 57 57 57 57 56 56 55 53 52 52 50 48 46 44 43 42 41 40 39 37 36 35 34 33 33 32 32 32 32 32 32 32 33 34
57 56 55 54 54 54 54 55 55 56 56 57 57 57 57 56 55 53 53 51 50 48 47 45 44 43 42 40 39 37 36 35 35 34 34 33 33 33 33 34 34 34 35
57 56 54 53 53 53 52 53 54 55 56 56 57 58 59 58 57 55 53 52 51 50 49 47 46 44 43 42 40 39 38 37 36 35 35 34 34 34 34 35 35 35 36
56 55 53 53 52 52 51 51 52 53 54 55 57 58 59 59 58 57 54 53 52 51 50 49 47 46 44 42 41 40 39 38 37 36 35 35 35 35 35 35 36 36 37
55 53 52 51 50 51 50 49 50 51 53 55 56 58 59 59 59 58 56 55 53 52 51 50 48 46 45 44 42 41 40 38 37 36 36 36 36 36 36 36 36 37 38
52 51 49 48 48 48 48 48 48 49 50 53 55 56 57 58 59 58 57 56 55 53 51 50 48 47 46 44 43 41 40 39 38 37 37 36 36 36 36 36 37 37 38
49 48 46 45 45 45 46 45 46 47 48 50 52 54 56 56 57 57 56 56 55 54 52 51 50 48 46 45 44 42 40 40 39 38 37 36 36 36 36 37 38 38 39
Wind_Direction
297 296 298 300 303 308 314 320 325 327 331 337 343 348 354 358 3 7 9 11 10 342 270 203 195 200 202 204 206 208 212 216 218 219 221 222 224 227 227 227 230 232 233
297 294 294 295 297 300 304 309 315 318 320 323 329 333 339 346 351 356 359 1 358 333 272 226 211 208 205 208 210 212 216 221 222 223 223 225 227 228 230 230 232 234 236
296 294 292 292 292 293 296 299 304 308 310 311 315 318 322 328 331 334 339 342 343 334 285 248 229 222 214 212 213 216 221 225 225 225 225 225 228 229 231 232 234 237 239
294 292 290 289 289 289 290 292 294 297 300 302 303 306 307 313 314 313 317 317 307 294 285 260 239 231 226 222 221 224 228 229 228 227 226 226 228 230 231 233 236 238 240
295 291 290 288 286 286 285 285 287 288 290 292 293 294 294 297 299 297 296 296 290 280 273 267 258 244 236 234 234 235 236 233 233 231 231 234 234 235 236 237 239 240 242
295 291 288 287 285 284 282 280 280 281 282 283 284 284 284 284 286 286 286 283 279 273 268 266 260 255 251 246 243 242 243 241 239 238 240 243 243 243 243 243 244 245 247
292 290 287 284 283 282 281 278 277 276 276 276 277 276 276 276 275 275 276 276 273 269 265 264 262 258 255 252 249 246 246 245 242 243 245 247 248 249 248 248 249 250 251
290 288 286 283 281 280 278 276 274 273 272 271 272 272 270 270 269 268 267 267 266 266 264 262 260 259 258 258 255 252 250 248 248 248 250 251 251 252 254 254 254 255 255
290 287 285 283 281 279 277 274 273 271 269 268 267 267 266 265 265 264 261 260 259 259 259 260 258 257 257 257 257 256 254 254 254 254 255 254 254 254 255 257 258 259 260
288 286 284 281 279 277 275 273 271 269 267 265 264 263 263 262 261 260 258 256 255 255 255 254 255 256 256 257 257 257 257 257 257 257 258 258 259 259 260 261 261 263 263
287 285 283 280 277 274 272 271 269 267 265 264 262 261 260 259 258 257 256 255 254 253 253 252 252 254 255 256 257 258 258 258 259 259 259 260 261 263 265 265 265 265 266
285 283 281 279 276 273 271 269 267 265 264 262 261 259 258 257 256 255 254 254 253 252 252 252 252 253 255 256 256 256 257 258 259 260 260 261 262 264 266 267 268 269 269
284 282 279 277 275 273 270 268 266 264 262 260 259 257 256 255 254 254 253 252 252 252 252 252 252 253 254 255 256 256 257 259 260 261 262 262 263 265 267 269 270 271 272
282 280 278 276 274 271 269 267 265 263 261 259 257 256 255 253 253 253 252 251 251 251 251 252 252 253 254 255 256 256 257 258 260 261 263 264 265 266 268 270 272 273 274
281 279 277 274 272 270 267 265 264 262 260 258 256 255 254 253 252 252 251 250 250 250 250 250 251 252 253 254 255 256 257 258 260 262 263 265 267 269 270 271 273 275 276
281 278 275 273 270 268 265 263 261 260 258 257 255 254 253 252 251 251 251 250 249 249 249 250 251 252 253 253 254 256 257 258 260 262 265 267 269 271 273 274 275 277 278
281 278 275 272 269 267 264 261 259 258 256 255 254 253 252 251 251 250 249 249 249 249 249 250 251 252 252 253 254 255 257 259 260 262 265 267 269 271 273 275 276 278 280
281 279 276 272 269 267 264 262 259 256 254 253 252 251 251 249 249 249 248 248 249 249 249 250 250 251 252 253 254 255 257 259 261 263 265 268 270 272 273 275 277 279 280
283 280 277 273 269 267 264 261 259 257 254 252 250 249 249 248 247 247 248 248 248 248 248 249 249 250 251 252 254 255 257 259 261 263 265 268 270 272 274 275 277 279 281
285 282 278 274 270 267 265 262 258 256 253 250 248 247 246 246 246 246 246 246 247 247 247 247 248 249 250 251 253 255 257 259 261 263 266 268 270 272 274 275 278 280 281
285 282 279 274 270 267 264 261 258 254 251 248 247 245 245 244 244 244 244 244 244 245 245 246 247 248 249 251 252 254 256 259 261 263 266 268 270 272 274 276 279 281 283
285 282 279 275 271 267 264 261 258 254 250 246 244 243 242 242 242 242 242 241 242 243 244 244 245 247 248 250 251 253 255 258 261 263 266 268 270 272 275 277 279 282 284
286 283 279 275 271 267 263 261 259 255 250 246 243 241 241 241 240 240 240 240 240 241 242 243 244 246 247 249 250 252 254 257 260 262 265 268 270 273 276 278 280 283 285
287 284 280 276 272 267 264 262 259 256 251 246 244 242 240 238 238 237 237 237 238 238 240 241 242 244 246 247 249 251 253 255 258 261 264 268 271 274 276 279 281 284 286
287 285 281 277 273 268 265 262 259 256 251 247 244 242 240 236 236 235 234 235 235 236 237 238 240 242 244 246 248 250 252 254 257 261 265 267 270 274 277 279 282 286 288
289 286 281 277 273 269 266 263 259 255 250 245 242 240 238 235 234 232 232 233 233 234 235 236 238 240 243 245 247 249 252 254 257 260 264 267 270 273 276 280 283 286 290
Height
5815 5814 5812 5811 5810 5809 5807 5805 5803 5801 5799 5797 5795 5793 5790 5788 5786 5785 5783 5782 5781 5781 5780 5780 5781 5782 5783 5785 5786 5788 5791 5793 5796 5798 5801 5804 5807 5809 5812 5815 5817 5820 5823
5812 5811 5810 5809 5808 5806 5805 5804 5802 5800 5798 5796 5795 5793 5790 5789 5787 5785 5784 5783 5782 5781 5780 5780 5781 5781 5782 5783 5785 5786 5788 5791 5793 5795 5797 5800 5802 5805 5807 5810 5813 5815 5818
5809 5808 5807 5806 5805 5804 5803 5801 5800 5798 5797 5795 5794 5792 5790 5788 5787 5785 5784 5783 5782 5781 5781 5780 5780 5781 5781 5782 5783 5785 5786 5788 5789 5791 5793 5796 5798 5800 5803 5805 5808 5810 5812
5805 5804 5803 5802 5801 5800 5800 5799 5797 5796 5795 5793 5792 5791 5789 5788 5786 5785 5784 5783 5782 5781 5780 5780 5780 5780 5780 5781 5782 5783 5784 5785 5786 5788 5790 5792 5794 5796 5798 5800 5803 5805 5807
5802 5801 5799 5799 5798 5797 5796 5795 5794 5793 5792 5791 5790 5789 5787 5786 5785 5784 5783 5782 5781 5780 5780 5779 5779 5779 5779 5779 5780 5781 5782 5782 5783 5784 5786 5788 5789 5791 5793 5795 5797 5799 5801
5797 5796 5795 5794 5793 5792 5792 5791 5790 5790 5789 5788 5787 5786 5785 5784 5783 5782 5781 5780 5779 5779 5778 5778 5777 5777 5778 5778 5778 5779 5779 5780 5780 5781 5782 5784 5785 5787 5789 5790 5792 5794 5796
5792 5791 5790 5789 5788 5787 5787 5786 5786 5785 5784 5784 5783 5783 5782 5781 5780 5779 5779 5778 5777 5777 5776 5776 5776 5776 5775 5776 5776 5776 5777 5777 5778 5778 5779 5780 5782 5783 5784 5785 5787 5788 5789
5786 5785 5784 5783 5782 5781 5781 5780 5780 5780 5779 5779 5779 5778 5778 5777 5777 5776 5775 5775 5774 5774 5774 5773 5773 5773 5773 5773 5773 5773 5774 5774 5774 5775 5776 5777 5777 5778 5780 5781 5781 5783 5784
5780 5778 5777 5776 5776 5775 5774 5773 5773 5773 5773 5773 5773 5773 5773 5772 5772 5772 5772 5771 5771 5771 5770 5770 5770 5770 5770 5770 5770 5770 5770 5771 5771 5771 5772 5772 5773 5774 5775 5776 5776 5777 5778
5772 5771 5769 5769 5768 5767 5767 5766 5765 5765 5766 5766 5766 5766 5766 5767 5767 5767 5767 5767 5767 5766 5766 5766 5766 5766 5766 5766 5766 5766 5767 5767 5767 5767 5768 5768 5769 5769 5770 5770 5771 5771 5772
5763 5762 5760 5759 5759 5758 5758 5757 5757 5757 5757 5758 5758 5759 5759 5759 5760 5760 5760 5761 5761 5761 5761 5761 5762 5762 5762 5762 5762 5762 5762 5762 5763 5763 5763 5763 5764 5764 5764 5765 5765 5765 5766
5753 5752 5750 5749 5748 5748 5748 5747 5747 5747 5748 5748 5749 5750 5750 5751 5752 5752 5753 5754 5754 5755 5755 5756 5756 5756 5756 5757 5757 5757 5757 5758 5758 5758 5758 5758 5758 5759 5759 5759 5759 5759 5759
5741 5739 5738 5737 5736 5736 5736 5736 5736 5736 5737 5738 5739 5740 5741 5742 5742 5743 5744 5745 5746 5747 5748 5748 5749 5750 5750 5751 5751 5751 5752 5752 5752 5752 5752 5753 5753 5753 5753 5753 5753 5753 5752
5727 5726 5725 5724 5723 5723 5722 5723 5723 5724 5725 5726 5727 5728 5729 5731 5732 5733 5735 5736 5737 5738 5739 5740 5741 5742 5743 5743 5744 5745 5745 5745 5746 5746 5746 5746 5746 5746 5746 5746 5746 5746 5745
5712 5710 5709 5709 5708 5708 5708 5708 5709 5710 5711 5712 5714 5715 5717 5719 5721 5722 5723 5725 5727 5728 5730 5731 5732 5734 5735 5736 5736 5737 5738 5738 5739 5739 5739 5739 5739 5739 5739 5739 5738 5738 5737
5693 5692 5691 5691 5690 5690 5691 5692 5692 5694 5695 5697 5699 5701 5703 5706 5707 5709 5711 5713 5715 5717 5719 5721 5723 5724 5726 5727 5728 5729 5729 5730 5730 5731 5731 5731 5731 5731 5731 5730 5730 5729 5728
5672 5672 5671 5671 5670 5671 5671 5673 5675 5677 5678 5681 5683 5685 5688 5691 5693 5696 5698 5700 5703 5705 5708 5710 5713 5714 5716 5717 5719 5720 5721 5721 5722 5722 5723 5723 5723 5723 5722 5722 5721 5720 5719
5650 5649 5649 5649 5649 5649 5650 5652 5654 5657 5660 5663 5666 5668 5671 5674 5678 5681 5683 5686 5690 5693 5696 5699 5701 5703 5705 5707 5708 5710 5711 5712 5712 5713 5713 5714 5714 5713 5713 5712 5712 5711 5710
5628 5627 5626 5626 5626 5627 5628 5630 5632 5635 5639 5643 5647 5650 5654 5657 5661 5665 5668 5672 5677 5680 5684 5686 5689 5691 5693 5695 5697 5699 5700 5702 5702 5703 5704 5704 5704 5704 5703 5703 5702 5701 5700
5607 5605 5603 5603 5603 5604 5605 5607 5610 5613 5617 5622 5627 5632 5635 5639 5644 5649 5653 5658 5662 5666 5670 5673 5676 5679 5681 5684 5686 5688 5690 5691 5692 5693 5693 5694 5694 5693 5693 5692 5692 5691 5689
5587 5585 5583 5581 5581 5582 5583 5585 5588 5591 5596 5601 5607 5612 5616 5621 5627 5632 5637 5642 5647 5651 5655 5659 5662 5666 5669 5672 5674 5676 5678 5680 5681 5682 5683 5683 5683 5683 5682 5682 5681 5680 5678
5567 5565 5563 5561 5561 5561 5562 5564 5566 5570 5574 5580 5587 5592 5597 5602 5609 5615 5621 5626 5631 5636 5641 5645 5649 5652 5656 5659 5662 5664 5667 5668 5670 5671 5672 5672 5672 5672 5672 5671 5670 5669 5667
5547 5544 5542 5541 5541 5541 5542 5544 5546 5549 5554 5559 5565 5571 5577 5584 5590 5597 5603 5609 5614 5620 5625 5630 5635 5639 5643 5646 5650 5652 5655 5657 5659 5660 5661 5661 5661 5661 5661 5660 5659 5657 5656
5527 5525 5523 5522 5521 5522 5523 5525 5527 5530 5533 5539 5544 5550 5557 5564 5571 5578 5585 5592 5597 5604 5610 5615 5621 5625 5630 5633 5637 5640 5643 5645 5647 5648 5649 5650 5650 5650 5650 5649 5647 5646 5644
5509 5506 5504 5503 5503 5503 5504 5506 5508 5510 5514 5519 5524 5530 5537 5544 5551 5560 5567 5574 5581 5588 5594 5601 5606 5611 5616 5620 5624 5627 5630 5633 5635 5636 5638 5638 5639 5639 5638 5637 5636 5634 5632
5492 5489 5487 5486 5485 5485 5486 5487 5489 5492 5495 5500 5505 5512 5518 5525 5533 5541 5549 5557 5565 5572 5579 5586 5592 5597 5602 5607 5611 5615 5618 5620 5623 5625 5626 5627 5627 5627 5626 5625 5624 5622 5620